LiveATC.Net - Listen to live air traffic control over the Internet!


ICAO: KTTN  IATA: TTN   Airport: Trenton Mercer Airport
City: Trenton   State/Province: New Jersey
Country: United States   Continent: North America
KTTN METAR Weather: KTTN 150053Z 26016G24KT 10SM BKN027 OVC033 09/04 A2935 RMK AO2 PK WND 25028/0017 SLP933 T00890039
KTTN Flight Activity (FlightAware)
KTTN Airport Info   (iFlightPlanner)
KTTN VFR Sectional Chart   (iFlightPlanner) 
KTTN IFR Low Chart   (iFlightPlanner) 

KTTN Ground/Tower
Feed Status: UP   Listeners: 0
Listen in your browser - HTML5 player (in browser, HTML5)
Click here to listen with your own player (launches your MP3 player)
Archive Access: KTTN Ground/Tower
FacilityFrequency
Trenton Ground121.900
Trenton Tower120.700

NOTICE

Unauthorized use prohibited. See LiveATC.net Terms of Service


Airport/ARTCC Code
Frequency Search
(e.g., 124.400, 128.75)
Site-wide search
 


Browse Feeds
Top 50 Feeds
Coverage Map
Bad Weather Areas

LiveATC FAQ
Offer LiveATC feed
Contact LiveATC.net
Press Inquiries

LiveATC on iPhone
LiveATC on Android

Windows Phone
Windows 8/10

LiveATC Mobile
(Mobile browser)

ATC Audio Archives
Interesting Recordings

LiveATC Forums


Home Page
About LiveATC.net
Make a Donation
Terms of Use
Privacy Policy

Canadian Air Freqs

AIRMETs/SIGMETs

FAA Airport Status
Nat'l Airspace Status
Arrival Demand Charts


Server Software By:
Icecast.org
Liquidsoap